Wind_Speed
92 92 92 93 93 93 93 93 93 93 93 93 93 92 91 89 89 89 89 90 90 90 90 90 90 89 89 89 89 90 90 89 87 85 83 81 80 79 77 76 75 73 72 72 71 71 70 70 69 68 68 67 67 66 65 65 64 64 64 63 63 62 62 61 61 62 62 63 63 63 62 62 63 63 63 63 63 63 63 62 61 60 59 59 59 59
94 94 94 94 94 94 94 94 94 94 95 95 95 94 93 91 90 89 89 90 90 91 90 90 89 89 88 88 88 89 89 89 88 86 84 82 80 79 78 77 76 75 74 73 73 72 72 71 70 70 69 69 69 68 68 67 67 66 66 65 65 64 63 63 63 63 64 64 64 64 64 64 64 64 64 64 64 63 63 62 61 60 59 59 60 60
95 95 95 95 95 95 95 95 95 96 96 96 96 96 95 94 93 91 90 90 90 91 91 90 90 89 88 88 87 88 88 89 88 87 85 83 81 80 79 78 77 76 75 75 74 74 73 73 72 71 71 71 71 71 70 70 69 69 69 68 67 66 65 65 65 65 65 66 66 65 65 66 66 66 65 65 64 64 63 62 61 61 60 60 60 60
96 97 97 96 96 96 96 96 96 97 97 97 97 97 97 96 95 94 92 92 91 91 92 91 91 90 89 88 88 88 88 88 88 88 86 84 83 81 80 79 78 77 77 76 76 75 75 74 74 73 73 73 73 73 73 72 72 72 71 70 69 68 67 66 67 67 67 67 67 67 67 67 67 67 66 66 65 64 64 63 62 61 61 60 61 61
96 97 98 97 97 97 97 97 98 98 98 99 99 99 98 98 97 96 95 94 93 93 92 92 92 92 91 90 90 89 89 89 89 88 88 86 85 83 82 81 80 79 78 78 77 77 76 76 76 76 75 75 75 75 75 75 74 74 73 72 71 70 69 68 68 69 69 69 69 68 69 69 69 68 67 67 66 65 65 64 63 62 62 62 62 62
97 98 98 98 99 98 98 98 98 99 100 100 100 100 100 100 99 98 98 96 95 95 94 94 93 93 93 92 92 92 91 91 91 90 90 89 87 86 84 83 82 81 81 80 79 78 78 78 78 78 77 77 77 77 77 77 76 75 75 74 73 72 71 70 70 70 70 70 70 70 70 70 70 70 69 68 67 67 66 65 65 64 64 63 63 63
98 98 99 99 99 99 99 99 99 100 100 101 101 101 101 101 101 101 100 99 98 97 96 95 95 94 93 93 94 94 94 94 94 93 92 92 91 89 88 86 85 84 83 83 82 81 81 80 80 80 79 80 79 79 79 78 78 77 76 75 74 73 73 72 72 72 72 72 72 72 72 72 71 71 70 69 69 68 68 67 66 66 66 65 65 64
99 99 100 100 100 100 100 100 100 101 101 101 102 102 103 103 103 102 102 101 100 99 98 97 96 95 94 94 94 95 95 96 96 96 95 95 94 93 91 90 89 88 87 86 85 84 83 83 82 82 82 81 81 81 80 80 79 78 77 77 76 75 74 74 73 73 73 73 74 74 73 73 72 72 71 71 70 70 69 69 68 68 68 67 66 65
100 100 100 101 101 101 101 101 101 101 101 102 102 103 104 104 104 104 104 103 102 101 101 100 98 97 95 95 94 95 96 97 97 98 98 97 97 96 94 93 92 91 90 89 88 87 86 85 84 84 83 83 82 82 81 81 80 80 79 78 77 76 76 75 75 75 74 75 75 75 75 74 73 72 72 72 71 71 71 71 71 71 70 69 68 66
101 101 101 101 101 101 102 102 102 102 102 102 103 103 104 105 105 105 105 104 104 103 102 102 101 99 98 96 96 96 96 96 97 98 99 99 99 98 97 96 95 94 93 92 90 89 88 87 86 85 85 84 83 83 82 82 81 81 80 79 79 78 77 76 76 76 76 76 76 76 75 75 74 73 73 73 73 73 73 73 73 73 72 71 69 67
101 101 102 102 102 102 102 103 103 102 102 103 103 104 104 105 105 105 105 105 104 104 103 103 102 101 100 99 98 97 97 97 97 98 99 99 100 100 100 99 98 97 96 95 93 92 91 89 88 87 86 85 85 84 84 83 83 82 82 81 80 80 79 78 77 77 77 76 76 77 76 75 74 74 73 74 74 74 75 75 75 75 74 72 69 67
102 102 102 102 102 102 102 103 103 103 103 103 104 104 105 105 105 105 105 105 105 104 104 103 103 103 102 101 101 100 100 99 99 99 99 99 99 100 100 100 100 99 99 98 96 95 94 93 91 90 89 88 88 87 86 86 85 85 84 84 83 82 81 80 79 78 77 77 77 77 77 76 75 75 74 75 75 76 77 77 77 76 75 73 70 68
102 102 102 102 102 102 102 102 103 103 103 104 104 105 105 105 104 104 104 105 105 104 104 103 103 103 103 103 103 102 102 102 101 100 99 99 99 99 99 100 101 101 101 100 99 98 97 96 95 94 93 92 92 91 91 90 90 89 88 87 86 85 84 82 81 80 79 78 78 78 77 77 76 76 76 76 77 78 79 79 78 77 76 73 70 68
102 103 103 103 103 102 102 102 102 103 103 104 104 105 105 104 104 104 104 104 104 103 103 103 103 103 103 103 104 104 104 103 103 102 101 100 99 99 99 99 100 101 101 101 101 100 100 99 98 97 97 96 96 96 95 95 95 94 93 92 91 89 87 85 84 82 81 80 79 79 79 78 78 77 77 78 79 80 81 81 80 78 76 73 71 68
103 103 103 103 102 102 102 102 102 102 103 103 104 104 104 104 104 104 104 104 103 103 102 102 102 102 103 103 104 104 104 104 104 103 102 101 100 99 99 99 100 100 100 101 101 101 101 101 100 99 99 99 98 98 98 98 98 98 97 96 95 93 91 89 87 85 84 82 81 81 80 80 80 79 80 80 81 82 83 82 81 79 76 73 71 68
103 103 103 102 102 102 101 101 102 102 103 103 104 104 104 104 104 103 103 103 103 102 102 101 101 101 101 102 102 103 104 104 104 104 103 103 102 101 101 101 101 100 100 100 101 101 101 101 101 100 100 100 100 100 100 100 100 99 99 98 98 96 95 93 91 89 88 86 85 84 83 83 83 82 83 83 84 84 84 83 82 79 76 73 70 68
103 103 103 102 102 101 101 101 102 102 103 104 104 103 103 103 103 103 103 103 102 102 102 101 101 100 100 100 100 101 102 103 103 103 103 104 103 103 102 102 102 102 101 101 100 100 100 100 100 100 100 100 100 100 100 101 100 100 100 100 99 98 97 96 95 93 92 91 89 88 88 87 87 86 86 86 86 86 86 84 82 79 76 73 70 68
104 104 103 103 102 102 101 101 102 103 104 104 104 103 102 102 102 102 102 102 102 102 102 101 100 99 99 99 99 99 99 101 102 102 103 103 103 103 103 103 103 103 102 101 101 100 100 100 100 100 100 100 100 100 100 101 101 101 101 101 100 100 99 98 98 97 96 95 94 93 92 92 91 90 89 89 88 87 86 83 81 78 75 72 70 68
104 104 104 104 103 102 102 102 102 103 104 105 105 104 103 102 102 102 102 102 102 102 102 101 100 99 98 98 98 98 98 99 100 101 101 102 102 103 103 104 104 104 103 103 102 101 101 101 100 100 100 99 99 100 100 101 101 101 102 102 101 101 101 100 99 99 98 98 97 96 96 95 94 93 91 90 88 87 85 82 79 76 74 72 70 68
105 105 105 105 104 103 103 103 103 104 105 106 106 105 104 102 102 102 103 103 102 102 102 101 100 99 98 98 98 98 97 98 99 100 100 100 101 101 102 103 103 103 103 103 102 102 102 101 101 100 100 100 99 99 99 100 100 101 102 102 102 102 101 101 101 100 100 99 98 98 97 96 94 93 91 89 87 85 83 80 78 75 73 71 69 68
106 106 105 105 105 105 105 104 104 105 106 107 107 106 105 103 103 102 102 103 103 103 102 102 101 99 98 98 98 98 97 98 99 100 100 100 100 101 101 101 101 102 102 102 102 101 101 101 101 100 100 100 100 99 99 99 100 100 101 101 101 101 101 101 100 100 99 98 98 97 95 94 92 90 88 86 84 82 80 78 76 74 72 70 69 67
106 106 106 106 106 106 106 106 106 106 107 108 108 108 106 105 103 103 103 103 103 103 103 102 101 100 98 98 98 98 98 99 100 100 100 101 101 101 100 99 99 99 100 100 100 99 99 100 100 100 100 99 99 99 99 99 99 99 99 100 100 100 99 99 98 97 96 95 95 93 92 90 88 87 85 83 81 80 78 77 75 73 72 70 69 68
106 106 106 106 106 106 106 106 107 108 108 109 109 108 107 105 104 104 104 104 104 104 104 103 102 100 100 99 99 99 100 101 101 102 102 102 103 102 100 98 98 98 98 98 97 97 97 98 98 98 98 98 98 98 98 98 98 98 97 97 97 97 97 96 95 94 93 92 91 89 88 87 85 84 82 81 79 78 77 76 74 73 71 70 69 68
106 106 106 106 106 106 106 107 108 108 109 110 110 109 107 106 105 105 105 105 105 105 104 103 103 102 101 100 100 100 101 102 103 103 103 104 104 103 101 99 98 97 97 96 95 95 95 96 96 96 96 96 96 97 97 97 97 96 96 96 95 94 94 93 92 91 90 89 88 87 85 84 83 82 81 79 78 77 76 75 74 73 72 71 70 69
105 105 105 105 105 105 106 106 107 108 109 110 110 109 107 106 105 105 105 106 106 106 105 104 104 103 102 101 101 101 102 103 104 105 105 106 106 105 103 100 99 98 97 96 95 94 95 95 95 95 95 95 95 95 95 95 95 95 95 94 93 93 92 90 89 88 88 87 86 86 85 84 83 82 80 79 79 78 76 75 74 73 72 72 71 70
103 103 103 103 103 103 104 105 106 107 108 109 109 108 107 106 105 105 105 106 106 106 105 105 104 104 103 102 102 103 103 105 106 107 107 108 108 107 105 102 100 99 98 96 95 95 95 95 96 95 95 94 94 94 94 94 94 93 93 93 92 92 91 90 88 87 86 86 85 85 85 84 83 83 82 81 80 79 78 76 75 74 74 73 72 72
100 100 100 100 100 101 101 102 103 105 106 107 107 107 106 105 104 104 104 104 105 104 105 104 104 103 103 103 103 103 104 105 107 108 109 109 109 109 107 105 103 101 100 98 97 96 96 96 96 96 95 94 94 93 93 93 92 92 92 92 91 91 90 89 88 87 86 85 85 84 84 84 84 84 83 83 82 80 79 78 77 76 75 75 74 73
96 96 96 96 97 97 97 98 99 101 102 104 104 104 103 102 102 102 102 102 102 102 102 102 102 101 101 102 102 103 104 105 107 108 109 109 109 109 108 106 105 103 102 100 98 97 97 97 97 97 96 95 94 94 93 92 92 92 91 91 90 90 89 88 88 87 87 86 85 84 84 83 83 84 84 84 83 82 81 80 79 78 77 76 75 74
93 93 93 93 93 93 93 94 95 96 97 99 100 100 99 99 98 98 98 97 97 98 99 99 98 98 99 100 100 101 103 105 107 108 108 108 108 108 108 107 106 104 103 101 100 99 98 98 98 97 97 96 95 94 94 93 92 91 91 90 89 89 88 88 88 87 87 86 86 85 84 83 83 83 83 84 84 83 82 81 80 79 78 77 76 75
91 91 92 92 92 92 91 91 92 92 93 94 96 96 96 96 95 94 93 93 93 93 94 94 94 94 94 95 97 99 101 103 105 105 106 106 107 107 106 106 105 104 103 102 101 100 99 99 98 97 97 96 95 95 94 93 92 91 90 89 88 88 87 87 87 87 87 87 86 86 85 84 83 83 83 83 83 83 83 82 81 80 79 78 77 75
91 91 92 92 92 92 92 91 91 91 91 92 93 94 94 94 94 93 91 90 90 89 90 89 89 89 89 90 92 94 97 99 101 102 103 104 104 104 104 104 104 103 102 101 100 100 99 98 98 97 97 96 95 95 94 94 93 92 90 89 88 87 86 86 86 86 87 87 87 86 86 85 84 83 83 83 83 83 82 82 81 80 79 78 77 76
93 93 93 93 93 93 93 93 93 92 92 92 92 92 93 93 93 93 92 90 89 89 88 87 87 87 86 86 87 89 91 94 96 97 99 100 101 101 101 102 102 101 100 99 99 99 98 97 97 96 96 96 95 95 94 94 93 92 91 89 87 86 85 85 85 85 86 86 86 86 86 86 85 84 83 83 82 82 82 82 81 80 79 78 77 76
95 95 94 94 94 94 94 94 94 94 94 93 93 93 93 93 93 93 93 92 91 90 89 88 87 87 86 86 85 85 86 88 90 91 93 95 97 98 98 98 99 99 98 97 97 97 96 96 95 95 95 95 95 94 94 93 93 92 92 90 88 86 85 85 84 84 85 85 86 86 86 86 86 85 84 83 83 82 82 82 81 81 80 78 77 76
97 97 96 96 95 95 95 95 95 95 95 95 95 94 94 94 94 94 94 93 93 92 91 90 89 88 88 87 86 86 85 85 86 87 88 90 92 93 93 94 95 95 95 95 95 94 94 93 93 93 93 94 94 93 93 92 92 92 91 91 89 88 86 85 84 83 83 84 84 85 86 86 86 86 85 84 84 83 82 82 82 81 80 79 78 77
97 97 97 97 97 97 96 96 96 96 96 96 96 96 95 95 95 95 95 94 94 93 93 92 91 91 90 89 88 88 87 87 86 86 86 86 87 88 89 90 90 91 91 91 91 90 90 90 89 90 90 91 92 92 92 91 90 90 90 90 90 89 87 86 84 83 83 83 83 84 85 85 86 86 86 85 85 84 83 83 82 81 81 80 79 78
95 96 97 97 97 98 97 97 97 97 97 97 96 96 96 96 96 96 96 96 95 95 94 94 93 93 92 91 91 90 90 89 88 87 86 86 86 86 86 87 87 87 87 87 86 85 85 84 84 85 86 87 89 90 90 89 88 88 88 88 88 88 88 87 85 84 83 82 82 82 83 84 85 85 86 86 86 85 84 83 83 82 81 81 80 79
95 95 96 96 97 97 98 98 98 98 98 98 97 97 97 97 97 97 97 97 97 96 96 96 95 95 94 94 93 93 92 92 91 90 89 87 87 86 86 86 86 85 85 85 84 83 81 80 79 79 80 82 84 85 86 86 86 86 86 86 86 86 87 86 86 85 83 83 82 82 82 82 83 84 85 86 86 86 85 85 84 83 82 82 81 80
95 95 95 96 96 96 97 98 98 99 99 99 99 98 98 98 97 97 97 97 97 97 97 97 97 97 96 96 95 95 94 94 93 92 91 90 88 87 87 86 86 85 85 85 84 83 81 79 78 77 76 77 78 80 81 82 83 83 83 83 83 84 84 84 84 84 83 83 82 82 82 82 82 83 84 85 86 86 86 86 85 84 84 83 82 82
97 96 96 96 96 96 96 97 98 99 99 99 99 99 99 99 98 98 98 98 98 98 98 98 98 98 98 98 97 97 96 96 95 95 94 92 91 89 88 87 87 86 86 85 85 84 82 81 79 77 76 75 75 76 77 78 79 80 80 80 80 81 82 82 82 82 82 82 82 82 81 81 81 81 82 83 84 85 86 87 86 86 85 84 83 83
98 98 97 97 97 96 96 97 97 98 99 99 100 100 100 100 99 99 99 99 99 99 99 99 99 99 99 99 99 98 98 98 97 97 96 95 93 92 90 89 88 87 86 86 85 85 84 83 81 79 77 76 75 74 74 75 76 77 77 77 78 79 79 80 80 81 81 81 80 80 80 80 80 81 81 81 82 83 84 85 86 86 86 86 85 84
98 98 98 98 98 97 97 97 97 97 98 98 99 100 100 101 101 101 100 100 99 99 99 99 99 99 100 100 100 100 100 99 99 98 98 97 95 94 93 91 90 89 88 87 86 85 85 84 83 81 80 78 76 75 75 74 74 74 75 75 76 76 77 77 78 79 79 79 79 79 79 79 79 79 80 80 80 81 81 82 83 84 85 85 86 85
98 98 98 98 98 97 97 97 97 97 97 97 98 99 100 100 101 101 101 101 101 100 100 100 100 100 100 101 101 101 101 100 100 99 99 98 97 96 95 94 92 91 89 88 88 87 86 85 84 83 82 80 79 77 76 75 75 74 74 74 74 74 74 75 76 77 78 78 78 78 78 78 78 78 78 79 79 80 80 80 80 81 81 82 83 84
96 96 97 97 97 97 97 97 96 96 96 96 97 98 98 99 100 101 101 101 101 101 101 100 100 100 100 101 101 101 101 101 101 100 100 99 99 98 96 95 94 93 91 90 89 88 87 86 85 84 84 82 81 79 78 77 76 76 75 74 73 73 72 73 74 75 76 77 78 78 78 77 77 77 77 77 77 77 78 78 79 79 79 79 79 80
94 94 95 95 95 95 95 95 95 95 95 95 96 96 97 97 98 99 100 101 101 101 101 101 100 100 101 101 101 101 102 101 101 101 101 100 100 99 98 97 96 95 93 92 91 90 88 87 86 86 85 84 83 81 80 79 78 78 77 77 76 74 73 73 73 73 74 75 76 77 77 77 77 76 76 76 76 76 76 76 76 77 77 77 77 76
92 92 92 93 93 93 94 94 94 94 94 94 94 95 95 95 96 97 98 99 100 100 101 101 101 101 101 102 102 102 102 102 102 101 101 101 101 100 99 98 97 96 95 94 92 91 90 89 88 87 86 85 84 83 82 81 80 80 79 79 78 77 76 75 73 73 73 74 75 75 76 76 76 75 75 75 75 75 75 75 75 75 75 75 75 74
89 90 90 90 91 91 92 92 92 92 92 93 93 93 93 94 94 95 95 97 98 99 99 100 100 100 101 102 102 102 102 102 102 102 102 102 101 101 100 100 99 98 96 95 94 93 91 90 89 88 87 86 85 85 84 83 82 82 81 81 80 79 79 77 76 74 74 73 74 74 75 75 74 74 75 75 75 75 74 74 74 74 74 74 74 73
87 87 88 88 89 89 90 90 90 90 91 91 91 92 92 92 92 93 93 94 95 96 97 98 98 99 100 101 101 102 102 102 102 102 102 102 102 101 101 100 100 99 98 97 95 94 93 92 90 89 88 87 87 86 86 85 84 84 83 83 82 81 81 80 79 77 76 75 74 74 74 74 74 74 75 74 74 74 74 74 74 73 73 73 73 73
85 85 85 86 86 87 87 88 88 88 89 89 90 90 90 90 91 91 92 92 93 93 94 95 96 97 99 100 100 101 101 102 102 102 102 102 102 102 101 101 100 100 99 98 97 96 95 93 92 91 90 89 89 88 88 87 86 86 86 85 84 83 83 82 81 80 78 77 76 75 75 74 74 75 75 74 74 74 74 73 73 73 73 73 73 73
82 82 83 83 84 84 85 85 86 86 87 87 88 88 88 89 89 90 90 90 91 92 92 93 94 95 96 98 99 100 100 101 102 102 102 102 102 101 101 101 101 101 100 99 99 98 97 95 94 93 92 91 90 90 89 89 88 88 87 87 86 85 85 84 83 82 81 80 78 77 76 76 76 75 75 75 74 74 74 74 74 73 73 73 73 73
79 79 80 81 81 82 82 83 83 84 84 85 85 86 86 87 87 88 88 89 89 90 90 91 92 93 94 95 96 97 99 100 101 101 102 102 101 101 101 101 101 101 101 101 100 99 98 97 96 95 94 93 92 92 91 91 90 90 89 89 88 88 87 86 85 84 83 82 81 80 79 78 77 77 76 76 75 75 75 74 74 74 74 74 74 74
76 77 77 78 79 79 80 80 81 81 82 83 83 84 84 85 85 86 86 87 87 88 88 89 90 90 91 92 94 95 96 98 99 100 101 101 101 101 101 101 101 101 102 102 101 101 100 99 98 97 96 95 95 94 94 93 93 92 91 91 90 89 89 88 87 86 85 84 83 82 81 80 80 79 78 77 77 76 76 75 75 74 74 74 74 74
Wind_Direction
266 266 266 266 267 267 267 267 267 268 268 268 268 268 268 267 267 267 268 268 269 270 270 271 272 273 273 274 274 275 276 276 277 277 277 278 278 279 279 279 279 279 279 279 279 279 280 280 280 280 280 280 280 280 280 280 281 281 282 283 284 284 285 285 285 285 285 285 285 286 286 287 287 288 289 290 291 292 293 294 294 295 296 296 297 298
266 266 266 266 266 266 266 267 267 267 267 267 267 267 267 267 266 266 266 266 267 267 268 269 270 270 271 272 273 274 275 276 276 277 277 277 277 278 278 279 279 279 279 279 279 279 279 279 279 279 279 279 279 279 280 280 280 281 282 282 283 283 284 284 284 284 284 284 285 285 286 286 287 287 288 289 290 291 291 293 294 294 295 295 296 297
266 266 266 266 266 266 266 266 266 266 266 266 266 266 267 266 266 265 265 264 264 265 266 266 267 268 268 269 270 271 272 273 274 275 276 276 276 276 277 277 277 277 277 277 278 278 278 278 277 277 277 278 278 279 279 279 280 281 281 282 282 282 282 283 283 283 283 284 284 285 285 285 286 287 288 288 289 289 290 292 293 294 294 295 295 296
265 265 265 266 265 265 265 265 265 265 265 265 265 266 266 266 266 265 264 264 263 263 264 264 265 265 265 266 267 267 269 270 271 272 273 273 274 274 274 274 275 275 275 275 276 276 276 276 276 276 276 276 277 278 278 279 279 280 280 281 281 281 281 282 282 282 282 283 284 284 284 285 285 286 287 288 288 288 289 291 292 293 293 294 294 295
265 265 265 265 265 265 265 265 265 265 265 265 265 265 265 265 265 265 264 264 263 263 262 262 263 263 263 263 264 264 265 266 267 269 270 270 271 271 271 272 272 272 273 273 274 274 274 275 275 275 275 275 276 277 277 278 279 279 280 280 280 281 281 281 281 281 282 282 283 283 283 284 285 286 286 287 287 288 289 290 291 292 292 293 293 294
265 265 265 265 265 265 265 265 265 265 265 265 265 265 265 265 265 265 264 264 263 263 262 262 262 261 261 261 262 262 262 263 264 265 266 267 268 268 269 269 270 270 271 271 272 272 273 273 273 273 274 274 275 276 276 277 278 278 279 279 280 280 280 280 280 281 281 282 282 282 283 283 284 285 286 286 286 287 288 290 291 291 291 292 293 293
265 265 265 265 265 265 265 265 265 264 264 264 265 265 265 265 265 265 265 264 264 263 263 262 262 261 261 261 260 260 261 261 262 262 263 264 265 265 266 267 267 268 268 269 270 271 271 272 272 273 273 274 274 275 276 276 277 278 278 279 279 279 279 280 280 280 281 281 281 282 282 282 283 284 285 285 286 287 288 289 290 290 291 291 292 292
265 265 265 265 265 265 265 265 265 264 264 264 264 264 265 265 265 265 265 265 264 264 263 263 262 262 261 261 260 260 260 260 260 261 261 262 263 263 264 264 265 266 267 267 268 269 270 271 271 272 273 273 274 274 275 276 276 277 277 278 278 279 279 279 279 280 280 280 281 281 282 282 283 284 284 285 285 286 287 288 289 290 290 291 291 291
265 265 265 265 265 265 265 265 265 265 265 264 264 264 264 264 264 264 265 265 265 264 264 264 264 263 262 262 261 261 260 260 260 260 260 260 261 261 262 262 263 264 265 266 267 268 269 270 270 271 272 273 273 274 274 275 275 276 277 277 277 278 278 278 279 279 279 280 280 281 281 282 282 283 283 284 284 285 286 287 288 289 290 290 290 290
266 265 265 265 265 265 265 265 265 265 265 264 264 264 263 264 264 264 264 264 264 265 265 264 264 264 264 263 262 262 261 261 260 260 260 260 260 260 261 261 261 262 262 263 264 265 267 268 269 270 271 272 272 273 273 274 274 275 276 276 277 277 277 278 278 278 278 279 279 280 281 281 282 282 282 282 283 284 285 286 287 288 289 289 289 289
266 266 266 266 266 265 265 265 265 265 265 265 264 264 264 263 263 264 264 264 264 264 264 264 264 264 264 264 263 262 262 261 261 260 260 260 260 260 260 260 261 261 261 261 262 263 264 265 266 267 269 270 270 271 272 272 273 274 275 275 276 276 277 277 277 277 278 278 279 279 280 280 281 281 281 281 282 283 284 285 287 287 288 288 288 288
267 267 266 266 266 266 266 266 266 266 265 265 264 264 264 264 264 264 264 264 264 264 264 264 264 264 264 264 264 263 263 262 262 261 261 260 260 260 261 261 261 261 261 261 260 260 261 262 263 264 265 266 268 269 270 270 271 272 273 274 275 275 276 276 276 276 277 277 277 278 279 279 280 280 280 280 281 282 283 285 286 286 287 287 286 286
267 267 267 267 267 266 266 266 266 266 266 265 265 264 265 265 265 265 264 264 264 264 263 263 263 263 263 263 263 263 263 263 262 262 262 261 261 261 261 261 261 261 261 261 261 261 260 260 260 261 262 263 264 265 267 268 269 270 271 272 273 274 274 275 275 275 275 276 276 277 277 278 278 279 279 279 280 281 282 284 285 285 285 285 285 285
268 268 268 267 267 267 267 267 267 266 266 266 266 265 266 266 266 265 265 265 264 264 264 263 263 263 263 263 263 263 263 263 263 263 263 263 262 262 261 261 261 261 261 261 262 262 261 261 261 260 260 261 262 263 264 265 266 267 268 270 271 272 272 273 273 274 274 274 275 275 276 276 277 277 277 278 279 280 281 282 283 284 284 283 283 283
268 268 267 267 268 268 268 267 267 267 267 266 266 266 266 266 266 266 266 265 265 265 265 264 263 263 263 262 262 262 263 263 264 264 264 264 264 263 263 262 261 261 261 261 261 261 262 262 261 261 261 261 261 261 262 263 264 265 266 267 268 269 270 271 271 272 272 273 273 274 274 275 275 276 276 277 277 279 280 281 282 282 282 282 281 281
267 267 267 267 267 267 267 267 267 267 267 266 266 266 266 266 266 266 266 266 266 266 266 265 265 264 263 263 263 263 263 263 263 264 264 264 264 264 264 263 262 262 261 261 261 261 261 261 262 262 262 261 262 262 262 262 263 264 265 265 266 267 268 268 269 270 270 271 272 272 273 274 274 275 275 276 276 277 279 280 280 281 280 280 280 280
267 267 267 267 267 267 267 267 267 266 266 266 266 266 266 266 266 267 267 267 267 267 266 266 266 265 265 264 264 263 263 263 263 264 264 264 264 264 264 263 263 263 262 262 262 262 261 261 262 262 262 262 262 262 262 262 263 263 264 265 265 265 266 267 267 268 269 269 270 271 271 272 273 274 274 275 276 276 277 278 279 279 279 279 278 278
267 267 267 267 267 266 266 266 266 266 266 266 266 266 266 266 266 266 266 266 266 266 266 266 266 266 266 265 265 265 264 264 264 264 263 263 263 263 263 263 263 263 263 263 263 263 262 262 262 262 262 262 262 262 262 262 262 263 263 264 264 265 265 265 266 266 267 268 268 269 270 271 272 272 273 274 274 275 276 277 277 277 277 277 277 277
267 267 267 267 267 267 267 266 266 266 266 266 266 266 266 266 266 266 266 266 266 266 266 267 267 266 266 266 266 266 266 265 265 265 264 264 263 263 263 263 263 263 263 263 263 263 263 263 263 263 262 262 262 262 262 262 262 262 263 263 264 264 265 265 265 266 266 267 267 268 269 270 271 271 272 273 273 274 275 275 276 276 276 276 276 276
268 268 268 268 268 268 267 267 266 266 266 267 267 267 267 266 266 266 266 266 267 267 267 267 267 267 267 267 267 266 266 266 266 266 265 265 264 264 263 263 263 263 263 263 263 263 263 263 263 263 263 263 262 262 262 261 261 262 262 262 263 264 264 265 265 266 266 267 267 268 269 269 270 270 271 272 272 273 273 274 274 275 275 275 275 276
268 268 268 268 268 268 268 268 267 267 267 267 267 267 267 267 267 266 266 267 267 267 267 267 267 267 267 267 267 267 267 266 266 266 266 265 265 264 264 263 263 263 263 263 263 263 263 263 263 263 263 263 263 262 262 262 261 261 261 262 262 263 263 264 265 266 266 267 268 268 269 269 270 270 271 271 271 272 273 273 274 274 274 275 275 275
268 268 268 268 268 268 268 268 268 268 267 267 267 268 268 268 268 267 267 267 267 267 267 267 267 267 267 267 267 267 267 266 266 266 266 265 265 265 264 264 264 264 264 264 264 263 263 263 263 263 263 263 262 262 262 262 262 261 261 261 262 262 263 263 264 265 266 267 268 268 269 270 270 270 270 271 271 272 272 273 273 274 274 274 274 274
268 268 268 268 268 268 268 268 268 268 268 268 268 268 268 268 268 268 268 267 267 267 267 267 268 268 267 267 267 267 266 266 266 266 265 265 265 265 265 265 264 264 264 264 264 264 264 263 263 263 262 262 262 262 262 262 262 261 261 261 261 261 262 262 263 264 265 266 267 268 268 269 270 270 270 271 271 272 272 273 273 273 274 274 274 274
269 269 268 268 268 268 268 268 268 268 268 268 268 269 269 269 268 268 268 268 267 267 267 267 267 267 267 266 266 266 266 266 266 266 266 265 265 266 266 265 265 265 264 264 264 264 264 264 263 263 262 262 262 261 261 261 261 261 261 261 261 261 261 262 262 263 263 264 264 265 266 267 268 269 269 270 271 271 272 272 273 273 273 273 273 273
269 269 269 269 269 269 268 268 268 268 268 268 269 269 269 269 268 268 268 268 267 267 267 267 267 266 266 266 266 265 265 265 265 265 265 265 266 266 266 266 266 265 265 265 265 264 264 264 263 263 263 262 262 261 261 261 261 261 261 261 261 261 261 261 261 262 262 262 262 262 263 264 265 266 267 268 269 270 270 271 271 272 272 272 272 273
270 270 269 269 269 269 268 268 268 268 268 268 269 269 269 269 269 268 268 267 267 267 267 267 266 266 266 266 265 265 265 265 265 265 265 265 265 266 266 267 266 266 266 265 265 264 264 264 264 263 263 263 262 262 262 261 261 261 261 260 260 260 260 260 261 261 261 261 261 261 261 261 262 263 264 266 267 267 268 269 269 270 270 271 271 271
270 270 270 270 269 269 268 268 268 268 268 268 269 269 269 269 268 268 267 267 267 267 267 267 266 266 266 265 265 264 264 264 264 264 264 264 265 265 266 266 266 266 266 266 265 265 264 264 264 264 263 263 263 262 262 262 261 261 261 260 260 260 260 260 260 260 260 259 260 260 260 260 260 260 261 263 264 265 266 267 267 268 268 269 269 270
271 271 270 270 270 269 269 268 268 268 268 269 269 269 269 269 268 268 267 267 267 267 266 266 266 266 265 265 264 264 263 263 263 263 263 264 264 265 265 266 266 266 266 266 265 265 264 264 264 264 264 263 263 263 262 262 261 261 261 260 260 260 259 259 259 259 258 258 258 258 259 259 259 259 259 260 261 262 263 264 265 266 267 267 268 268
272 271 271 271 270 270 269 269 268 268 268 269 269 269 269 269 268 268 267 267 267 266 266 266 265 265 264 264 263 263 263 262 262 262 263 263 263 264 265 265 265 265 265 265 265 265 264 264 264 264 263 263 263 263 262 262 261 261 261 260 260 259 259 259 258 258 257 257 257 257 257 258 258 258 258 259 259 260 261 262 263 264 265 265 266 267
272 272 271 271 271 270 270 269 269 268 268 269 269 269 269 269 269 269 268 267 267 266 266 265 265 264 263 262 262 262 262 261 262 262 262 263 263 263 264 264 264 264 265 265 264 264 264 263 263 263 263 263 263 263 262 262 261 261 260 260 260 259 259 258 258 257 257 256 256 256 256 257 257 257 257 258 258 258 259 260 261 262 263 264 265 265
271 271 271 271 271 270 270 270 269 269 268 268 269 269 269 269 269 269 269 268 267 267 266 265 265 264 263 262 261 260 260 261 261 262 262 262 262 263 263 263 263 264 264 264 263 263 263 263 263 263 263 263 262 262 262 262 262 261 260 260 259 259 258 258 257 257 256 256 255 255 255 255 256 256 256 256 257 257 258 258 259 260 261 262 263 264
271 270 270 270 270 270 270 270 269 269 268 268 268 268 268 269 269 269 269 269 268 267 267 266 266 265 264 262 261 260 259 259 260 261 261 261 262 262 262 263 263 263 263 263 263 262 262 262 262 262 262 262 262 262 262 262 262 261 261 260 259 258 258 257 257 256 255 255 255 254 254 254 254 255 255 255 255 256 256 257 257 258 259 260 261 262
272 271 270 270 269 269 269 269 269 268 268 268 268 267 267 268 268 268 268 268 268 268 267 267 266 266 265 264 263 261 260 259 259 259 259 260 260 261 261 262 262 262 262 262 262 262 261 261 261 261 261 261 261 261 261 261 261 261 261 260 259 258 257 256 256 255 255 254 254 253 253 253 253 253 254 254 254 254 255 255 255 256 257 258 259 259
271 271 271 270 269 269 268 268 268 268 268 267 267 267 267 267 267 267 267 267 267 267 267 266 266 266 265 265 264 263 262 261 260 259 259 259 259 259 260 260 260 261 261 261 261 260 260 260 260 260 260 260 260 260 260 260 260 260 261 260 260 259 257 256 255 254 254 253 253 252 252 252 252 252 252 253 253 253 253 253 254 254 255 256 256 257
270 270 270 270 269 269 268 268 267 267 267 266 266 266 266 266 266 266 266 266 266 266 266 266 265 265 265 265 264 264 263 263 262 261 260 260 259 259 260 260 260 260 260 260 259 259 259 258 258 258 258 258 259 259 259 259 259 259 260 260 260 259 258 257 255 254 253 253 252 251 251 250 250 250 251 251 251 252 252 252 252 252 253 253 254 255
268 268 268 268 268 268 268 268 267 267 266 266 265 265 265 265 265 265 265 264 265 265 265 264 264 264 264 264 263 263 263 263 262 262 261 261 260 260 260 260 260 260 260 260 259 259 258 257 256 256 255 256 256 257 257 258 257 258 258 258 259 259 259 258 257 255 254 253 252 251 250 249 249 248 248 249 249 250 250 250 251 251 251 251 252 253
267 267 267 267 267 267 267 267 267 266 266 265 265 264 264 264 263 263 263 263 263 263 263 263 263 263 263 263 262 262 262 262 262 261 261 260 260 260 260 261 261 261 261 261 261 260 259 258 256 255 254 253 254 254 255 256 256 256 256 256 257 257 258 258 258 257 256 254 253 251 250 249 248 247 247 247 247 248 248 249 249 249 250 250 250 251
268 267 267 266 266 266 266 266 266 266 265 265 264 264 263 263 263 262 262 262 262 262 262 262 262 262 262 261 261 261 261 261 261 261 260 260 260 259 259 260 260 260 261 261 261 262 261 260 259 257 255 253 252 252 253 254 254 254 254 254 255 255 256 257 257 257 257 256 255 253 252 251 249 247 246 246 246 246 246 247 248 248 248 249 249 250
270 269 268 267 266 265 265 265 265 265 265 264 264 264 263 263 262 262 261 261 261 261 261 261 261 261 261 260 260 260 260 260 260 260 260 259 259 259 258 258 258 259 259 260 260 261 261 261 260 259 258 256 254 253 252 252 252 252 252 253 253 253 254 254 255 256 256 256 256 255 254 253 252 250 248 246 245 245 245 245 246 246 247 247 248 248
270 270 269 268 267 266 265 264 264 264 264 264 264 263 263 263 262 261 261 260 260 259 259 259 259 259 259 259 259 259 259 259 259 259 259 259 258 258 257 257 257 257 258 258 258 259 260 260 260 260 259 258 257 256 254 253 252 251 251 250 250 251 251 252 252 253 254 254 255 255 255 255 254 253 252 250 248 246 245 245 245 245 246 246 247 247
271 270 269 268 268 267 266 265 264 263 263 263 263 262 262 262 262 261 261 260 260 259 259 258 258 258 258 258 258 258 258 258 258 258 258 258 257 257 257 256 256 256 256 256 256 257 257 258 259 259 259 259 258 257 257 255 254 253 251 250 249 249 249 250 250 251 251 252 252 253 253 254 254 255 255 254 253 251 249 247 246 245 245 245 246 246
270 270 269 269 268 267 266 265 265 264 263 262 262 261 261 261 261 261 261 260 260 259 259 258 258 257 257 257 257 257 257 257 257 257 257 257 257 256 256 256 255 255 255 255 255 255 255 256 257 257 258 258 258 258 257 257 256 255 254 252 250 249 248 248 248 249 249 250 250 251 251 252 252 253 254 254 255 255 254 252 250 248 247 246 246 246
270 270 269 269 268 267 267 266 265 264 263 262 262 261 261 260 260 260 260 260 260 259 259 258 258 257 257 257 257 257 256 256 256 256 256 256 256 256 255 255 255 254 254 253 253 253 254 254 254 255 256 256 257 257 257 257 257 257 256 255 253 251 249 247 246 247 247 248 248 249 249 249 250 250 251 252 253 254 255 255 255 254 252 250 248 247
270 269 269 268 268 267 267 266 265 264 264 263 262 261 260 260 259 259 259 259 259 259 259 258 258 257 257 257 256 256 256 256 256 256 256 256 255 255 255 254 254 254 253 252 252 252 252 252 252 253 253 254 255 256 256 256 256 256 256 256 255 254 252 250 248 247 246 246 247 247 248 248 248 248 249 249 250 251 252 253 255 255 256 255 254 252
270 269 269 268 268 267 266 266 265 265 264 263 262 262 261 260 259 259 258 258 258 258 258 258 258 257 257 257 256 256 256 256 255 255 255 255 255 255 254 254 254 253 253 252 252 251 251 250 251 251 252 252 252 253 254 254 255 255 255 255 255 255 254 253 251 249 248 247 247 247 247 247 247 247 247 247 247 248 249 250 251 253 254 255 256 256
270 269 269 268 267 267 266 266 265 265 264 263 263 262 261 260 260 259 258 258 257 257 257 257 257 257 256 256 256 256 256 255 255 255 255 254 254 254 254 254 253 253 253 252 252 251 250 250 249 249 250 250 250 251 251 252 252 253 253 253 253 253 254 254 253 252 250 249 248 247 247 247 246 246 246 246 246 246 247 247 248 249 251 252 254 255
270 269 269 268 267 267 266 266 265 265 264 263 263 262 261 261 260 259 258 258 257 256 256 256 256 256 256 256 256 256 255 255 255 254 254 254 254 254 253 253 253 253 252 252 252 251 251 250 249 248 248 248 248 249 249 249 250 250 251 251 251 251 252 252 252 252 251 250 249 248 247 247 246 246 246 245 245 245 245 246 246 247 248 249 250 252
270 269 268 268 267 267 266 265 265 264 264 263 263 262 261 261 260 259 259 258 257 256 256 255 255 254 254 255 255 255 255 255 255 254 254 253 253 253 253 253 253 252 252 252 251 251 250 250 249 248 247 247 246 247 247 247 247 248 248 249 249 250 250 250 250 250 250 250 249 248 247 247 246 246 245 245 245 245 244 244 244 245 246 247 248 249
270 269 268 268 267 266 266 265 265 264 264 263 263 262 261 261 260 259 259 258 257 257 256 255 254 254 253 253 254 254 254 254 254 254 254 253 253 252 252 252 252 252 252 251 251 250 250 249 249 248 247 247 246 245 245 245 245 246 246 246 247 248 248 249 249 249 249 249 248 248 247 246 246 246 245 245 245 244 244 243 243 244 244 245 245 246
270 269 268 268 267 266 266 265 265 264 264 263 263 262 261 261 260 260 259 258 258 257 256 255 254 254 253 253 252 252 252 253 253 253 253 253 252 252 252 251 251 251 251 250 250 250 249 249 248 248 247 247 246 245 245 244 244 244 244 244 245 245 246 247 247 247 247 247 247 247 247 246 246 245 245 245 244 244 243 243 242 242 243 243 244 245
270 269 268 268 267 266 266 265 265 264 264 263 263 262 261 261 260 260 259 258 258 257 256 255 255 254 253 252 252 252 251 251 252 252 252 252 252 251 251 251 250 250 250 250 249 249 248 248 248 247 247 246 246 245 245 244 243 243 243 243 243 243 244 244 245 246 246 246 246 246 246 245 245 245 244 244 244 243 243 243 242 242 242 242 242 243
Height
10598 10598 10598 10598 10598 10598 10598 10598 10598 10597 10595 10594 10595 10596 10596 10598 10598 10598 10598 10597 10597 10598 10598 10598 10598 10598 10598 10598 10598 10598 10596 10597 10599 10601 10603 10603 10604 10604 10606 10607 10608 10609 10611 10611 10613 10614 10615 10616 10618 10618 10619 10621 10622 10623 10624 10626 10626 10627 10628 10628 10628 10629 10629 10629 10630 10630 10630 10630 10630 10631 10631 10631 10631 10631 10632 10632 10632 10631 10631 10631 10631 10630 10629 10629 10628 10628
10590 10590 10591 10591 10591 10592 10592 10593 10593 10591 10590 10589 10588 10589 10589 10591 10592 10593 10593 10593 10593 10593 10593 10593 10594 10594 10594 10593 10593 10593 10591 10591 10592 10593 10596 10597 10598 10599 10599 10601 10602 10603 10604 10606 10607 10608 10609 10611 10612 10613 10614 10615 10616 10618 10619 10621 10621 10622 10623 10623 10624 10624 10625 10625 10625 10626 10626 10626 10626 10626 10627 10628 10628 10628 10627 10628 10628 10628 10627 10627 10627 10627 10626 10626 10625 10624
10584 10583 10583 10583 10584 10585 10585 10586 10586 10585 10584 10583 10583 10583 10583 10584 10585 10586 10588 10588 10588 10588 10588 10589 10589 10589 10590 10590 10589 10589 10588 10587 10587 10588 10589 10591 10593 10594 10595 10596 10597 10598 10599 10600 10601 10603 10604 10605 10606 10608 10609 10610 10611 10613 10614 10615 10616 10617 10618 10619 10619 10620 10620 10621 10621 10621 10621 10621 10621 10622 10623 10625 10626 10626 10623 10623 10623 10624 10624 10624 10623 10623 10623 10623 10622 10621
10576 10576 10574 10575 10576 10578 10578 10579 10579 10578 10578 10577 10576 10576 10576 10577 10578 10579 10581 10582 10583 10583 10584 10584 10584 10585 10586 10586 10586 10586 10585 10584 10583 10584 10584 10586 10588 10589 10591 10592 10593 10594 10595 10596 10597 10598 10599 10600 10601 10603 10604 10605 10606 10607 10608 10609 10611 10612 10613 10613 10614 10615 10616 10616 10616 10616 10616 10616 10617 10618 10618 10619 10621 10621 10620 10620 10621 10622 10622 10623 10621 10619 10619 10619 10619 10618
10569 10568 10566 10567 10568 10569 10570 10571 10571 10571 10570 10570 10569 10569 10570 10570 10571 10572 10573 10575 10576 10577 10578 10579 10579 10580 10581 10581 10582 10582 10582 10581 10581 10580 10581 10582 10583 10584 10586 10588 10588 10589 10591 10592 10593 10594 10594 10596 10596 10598 10599 10600 10601 10602 10603 10604 10606 10606 10608 10608 10609 10610 10611 10611 10611 10611 10611 10612 10613 10613 10613 10614 10615 10616 10616 10616 10618 10620 10618 10618 10617 10616 10616 10616 10616 10616
10561 10561 10560 10560 10560 10561 10562 10564 10564 10564 10563 10563 10563 10563 10563 10563 10563 10564 10566 10567 10568 10570 10571 10573 10573 10574 10575 10576 10577 10577 10577 10577 10576 10576 10577 10578 10579 10580 10581 10583 10584 10585 10586 10587 10588 10589 10590 10591 10592 10593 10594 10595 10596 10597 10598 10599 10600 10601 10602 10603 10604 10604 10605 10606 10606 10607 10607 10608 10608 10608 10608 10609 10609 10609 10612 10611 10612 10614 10613 10612 10612 10612 10613 10613 10613 10613
10553 10553 10553 10553 10553 10553 10554 10556 10557 10557 10557 10556 10556 10556 10557 10556 10556 10556 10557 10558 10560 10562 10564 10565 10566 10568 10569 10570 10571 10571 10571 10571 10571 10571 10572 10573 10573 10574 10576 10578 10579 10580 10581 10582 10583 10584 10585 10586 10587 10588 10589 10589 10591 10591 10593 10594 10595 10596 10597 10598 10598 10599 10600 10601 10601 10602 10602 10603 10603 10603 10603 10604 10604 10604 10605 10605 10606 10607 10609 10608 10608 10608 10609 10609 10609 10609
10545 10545 10545 10545 10545 10545 10546 10547 10548 10549 10551 10550 10550 10550 10551 10549 10549 10549 10549 10550 10551 10553 10555 10557 10559 10561 10563 10564 10564 10564 10564 10564 10565 10565 10566 10567 10568 10569 10570 10572 10573 10574 10575 10576 10578 10579 10579 10581 10581 10583 10583 10584 10585 10586 10587 10588 10589 10590 10591 10592 10593 10594 10594 10596 10596 10597 10598 10598 10598 10598 10598 10598 10599 10599 10599 10599 10599 10601 10603 10604 10604 10605 10606 10606 10605 10605
10537 10537 10537 10537 10538 10538 10538 10538 10539 10540 10542 10543 10543 10543 10543 10543 10542 10541 10542 10543 10543 10544 10547 10549 10551 10553 10555 10557 10558 10558 10558 10558 10558 10559 10559 10560 10561 10563 10564 10566 10567 10568 10570 10571 10572 10573 10574 10575 10576 10577 10578 10579 10579 10581 10581 10583 10583 10584 10586 10587 10588 10588 10589 10590 10591 10592 10593 10593 10593 10593 10593 10593 10594 10594 10594 10594 10594 10595 10596 10599 10601 10601 10602 10603 10603 10602
10528 10529 10529 10529 10529 10530 10531 10530 10530 10531 10533 10534 10534 10535 10536 10536 10536 10536 10536 10536 10536 10537 10539 10541 10543 10544 10547 10549 10551 10551 10551 10551 10551 10552 10553 10553 10554 10556 10557 10559 10560 10562 10564 10566 10567 10568 10569 10570 10571 10571 10573 10573 10574 10575 10576 10577 10578 10579 10580 10581 10582 10583 10584 10585 10586 10587 10587 10588 10588 10588 10588 10589 10589 10589 10590 10590 10590 10591 10592 10594 10596 10598 10598 10599 10599 10599
10519 10521 10521 10521 10521 10522 10523 10522 10522 10523 10525 10526 10526 10526 10528 10529 10529 10529 10529 10529 10530 10532 10534 10534 10534 10536 10539 10541 10543 10543 10544 10544 10544 10545 10546 10546 10547 10548 10549 10551 10553 10555 10558 10559 10561 10563 10564 10565 10566 10567 10568 10568 10569 10569 10570 10571 10572 10573 10574 10575 10576 10578 10579 10580 10581 10581 10582 10583 10583 10583 10583 10584 10584 10585 10585 10585 10586 10586 10587 10588 10590 10593 10594 10594 10595 10595
10511 10511 10513 10513 10513 10513 10514 10514 10514 10515 10516 10518 10517 10516 10516 10517 10518 10519 10521 10521 10523 10525 10528 10528 10528 10529 10531 10533 10533 10534 10535 10536 10536 10537 10538 10539 10540 10541 10543 10544 10546 10548 10549 10552 10554 10556 10558 10559 10561 10562 10563 10563 10564 10564 10565 10566 10567 10568 10569 10570 10571 10572 10573 10574 10576 10576 10577 10578 10578 10578 10579 10579 10579 10580 10581 10581 10581 10582 10583 10583 10584 10586 10589 10590 10591 10591
10501 10503 10503 10504 10504 10504 10506 10506 10506 10507 10508 10508 10508 10508 10507 10508 10509 10513 10513 10513 10514 10517 10519 10521 10521 10523 10524 10524 10525 10525 10526 10526 10528 10529 10531 10532 10534 10535 10536 10538 10539 10540 10541 10543 10546 10548 10550 10552 10554 10555 10556 10558 10559 10559 10560 10561 10561 10563 10564 10564 10566 10567 10568 10569 10570 10571 10572 10573 10573 10574 10574 10574 10575 10576 10576 10576 10576 10577 10578 10579 10580 10581 10584 10585 10586 10586
10493 10494 10494 10494 10494 10495 10497 10498 10499 10499 10499 10499 10499 10499 10499 10500 10502 10504 10505 10505 10506 10509 10512 10514 10515 10516 10517 10517 10517 10517 10517 10517 10518 10520 10523 10525 10527 10529 10531 10531 10532 10533 10534 10536 10538 10539 10542 10544 10546 10547 10549 10551 10552 10553 10554 10555 10556 10557 10558 10559 10561 10562 10563 10564 10565 10566 10567 10568 10568 10569 10569 10570 10571 10571 10571 10572 10572 10573 10573 10574 10576 10578 10579 10581 10582 10583
10484 10485 10486 10486 10486 10487 10488 10489 10490 10491 10491 10491 10491 10491 10491 10492 10493 10495 10496 10496 10498 10500 10504 10506 10507 10508 10509 10511 10511 10511 10512 10513 10513 10513 10515 10517 10519 10523 10524 10524 10525 10526 10527 10528 10529 10531 10533 10535 10537 10539 10541 10543 10544 10546 10547 10548 10549 10551 10552 10553 10554 10556 10558 10559 10560 10561 10562 10563 10563 10564 10564 10565 10566 10566 10567 10567 10568 10568 10569 10570 10572 10573 10574 10576 10577 10578
10476 10478 10479 10477 10477 10478 10479 10480 10481 10482 10481 10481 10482 10483 10483 10483 10484 10486 10488 10488 10489 10491 10495 10497 10498 10500 10502 10504 10506 10506 10506 10504 10506 10508 10509 10511 10512 10513 10516 10516 10516 10517 10519 10521 10522 10523 10524 10527 10529 10531 10533 10534 10536 10538 10539 10541 10542 10543 10545 10546 10548 10549 10551 10553 10554 10555 10556 10557 10558 10558 10559 10559 10561 10561 10561 10562 10563 10563 10564 10566 10567 10568 10569 10569 10571 10573
10466 10468 10468 10471 10472 10471 10472 10473 10473 10473 10473 10473 10473 10473 10474 10475 10476 10477 10479 10480 10481 10483 10485 10486 10489 10491 10493 10494 10494 10496 10496 10497 10498 10498 10501 10503 10504 10504 10506 10507 10507 10508 10510 10513 10514 10516 10517 10519 10521 10522 10524 10526 10528 10530 10531 10533 10535 10536 10538 10539 10541 10543 10544 10546 10548 10549 10550 10551 10552 10553 10553 10554 10555 10556 10556 10557 10558 10559 10559 10560 10561 10562 10563 10564 10564 10566
10457 10457 10458 10459 10461 10463 10464 10468 10468 10466 10468 10467 10466 10466 10466 10467 10468 10469 10470 10471 10473 10474 10475 10476 10479 10482 10483 10484 10485 10487 10489 10491 10491 10491 10492 10494 10494 10496 10498 10498 10498 10499 10501 10504 10506 10508 10509 10511 10513 10514 10516 10518 10520 10522 10524 10526 10528 10529 10531 10532 10534 10535 10536 10538 10540 10542 10543 10544 10545 10546 10547 10548 10549 10549 10551 10551 10552 10553 10553 10554 10555 10556 10557 10558 10559 10560
10448 10448 10449 10449 10450 10452 10454 10456 10456 10458 10461 10459 10458 10459 10459 10460 10461 10461 10461 10462 10464 10465 10466 10468 10470 10472 10474 10475 10476 10478 10481 10483 10482 10481 10483 10484 10486 10487 10489 10491 10491 10491 10493 10495 10498 10499 10501 10503 10505 10507 10509 10511 10513 10514 10516 10518 10520 10522 10523 10525 10526 10528 10529 10531 10532 10534 10536 10538 10539 10539 10541 10541 10543 10543 10544 10545 10546 10546 10547 10548 10549 10550 10551 10553 10554 10554
10440 10440 10441 10441 10442 10443 10444 10444 10445 10446 10448 10448 10448 10450 10451 10451 10452 10453 10453 10453 10454 10456 10458 10459 10461 10463 10465 10467 10468 10469 10471 10473 10473 10472 10473 10474 10476 10478 10479 10482 10483 10483 10484 10487 10489 10491 10493 10495 10497 10499 10501 10503 10504 10506 10508 10511 10513 10514 10516 10518 10519 10521 10522 10523 10524 10526 10528 10530 10531 10533 10534 10535 10536 10537 10538 10538 10539 10540 10541 10542 10543 10544 10546 10546 10548 10549
10431 10431 10431 10433 10434 10434 10434 10434 10436 10436 10436 10437 10438 10440 10440 10441 10443 10444 10444 10445 10446 10448 10449 10451 10453 10454 10457 10459 10460 10460 10461 10464 10465 10463 10462 10464 10466 10468 10469 10472 10474 10475 10476 10478 10481 10483 10486 10487 10489 10491 10493 10495 10497 10499 10501 10503 10504 10506 10508 10510 10512 10513 10515 10516 10518 10519 10521 10523 10524 10525 10526 10528 10529 10530 10531 10532 10533 10533 10534 10536 10537 10538 10539 10541 10542 10543
10423 10423 10423 10424 10425 10425 10424 10424 10426 10427 10427 10428 10429 10429 10429 10433 10435 10436 10436 10438 10439 10440 10441 10443 10444 10446 10449 10452 10453 10452 10453 10456 10456 10454 10454 10456 10456 10457 10459 10463 10466 10467 10468 10469 10473 10475 10478 10479 10481 10483 10485 10487 10489 10491 10493 10494 10496 10498 10501 10503 10504 10506 10508 10509 10511 10513 10514 10516 10516 10518 10519 10520 10521 10523 10524 10524 10525 10526 10528 10529 10530 10531 10533 10534 10536 10537
10414 10414 10414 10415 10416 10416 10416 10417 10418 10418 10418 10419 10419 10419 10421 10424 10426 10427 10428 10429 10431 10431 10432 10433 10435 10438 10440 10443 10443 10444 10446 10448 10446 10446 10447 10448 10446 10446 10449 10455 10458 10458 10458 10461 10464 10467 10469 10471 10473 10474 10477 10479 10481 10483 10484 10486 10488 10490 10492 10494 10497 10499 10502 10504 10506 10508 10509 10511 10511 10512 10513 10513 10514 10515 10516 10518 10518 10519 10520 10522 10523 10525 10526 10528 10529 10531
10406 10405 10406 10406 10406 10406 10407 10408 10408 10408 10409 10409 10409 10409 10412 10414 10416 10418 10419 10420 10421 10421 10423 10425 10427 10429 10431 10433 10434 10436 10438 10437 10436 10436 10438 10437 10436 10436 10441 10446 10449 10449 10449 10451 10455 10458 10460 10461 10463 10466 10469 10471 10473 10474 10476 10478 10480 10482 10484 10487 10490 10493 10496 10498 10501 10503 10504 10505 10506 10507 10508 10508 10508 10509 10510 10511 10512 10513 10514 10516 10517 10519 10520 10521 10523 10524
10396 10396 10396 10397 10398 10398 10398 10398 10398 10398 10398 10398 10398 10399 10401 10404 10406 10408 10409 10411 10411 10412 10413 10416 10418 10419 10419 10422 10425 10428 10428 10426 10426 10426 10426 10426 10426 10427 10431 10435 10438 10439 10439 10443 10446 10449 10451 10451 10453 10456 10459 10462 10464 10466 10468 10470 10472 10474 10477 10479 10483 10486 10489 10491 10494 10496 10498 10499 10500 10501 10503 10503 10504 10504 10505 10506 10506 10508 10509 10510 10512 10513 10514 10516 10517 10518
10387 10387 10388 10388 10389 10389 10389 10389 10388 10388 10387 10387 10388 10389 10391 10393 10396 10398 10400 10401 10401 10402 10404 10406 10407 10408 10409 10414 10417 10418 10418 10418 10418 10417 10416 10416 10416 10418 10420 10424 10428 10430 10430 10433 10437 10440 10441 10442 10443 10446 10449 10452 10454 10457 10459 10462 10464 10466 10469 10472 10474 10478 10480 10483 10486 10488 10489 10491 10493 10494 10496 10498 10499 10499 10500 10501 10501 10503 10504 10506 10507 10508 10509 10510 10511 10513
10378 10378 10378 10379 10379 10379 10380 10379 10379 10378 10378 10377 10378 10379 10381 10383 10386 10388 10389 10389 10390 10392 10394 10396 10396 10398 10401 10404 10406 10407 10408 10409 10409 10407 10406 10407 10408 10409 10410 10414 10418 10421 10422 10424 10427 10431 10432 10433 10434 10436 10439 10442 10445 10448 10451 10453 10456 10458 10461 10463 10466 10469 10471 10474 10476 10479 10481 10483 10485 10487 10489 10491 10493 10494 10495 10496 10497 10498 10499 10501 10502 10503 10504 10505 10506 10508
10369 10369 10369 10369 10369 10370 10370 10370 10370 10369 10368 10368 10368 10369 10371 10373 10376 10376 10376 10377 10380 10384 10385 10385 10386 10389 10391 10393 10394 10396 10398 10401 10400 10398 10398 10400 10401 10401 10401 10404 10409 10412 10414 10415 10418 10421 10423 10424 10424 10426 10429 10433 10436 10438 10441 10444 10446 10449 10452 10454 10457 10460 10463 10465 10468 10470 10472 10474 10477 10479 10482 10484 10486 10488 10489 10491 10492 10493 10494 10496 10497 10498 10499 10500 10501 10502
10359 10359 10359 10359 10359 10359 10360 10361 10361 10360 10359 10359 10358 10359 10360 10363 10364 10364 10365 10368 10373 10375 10374 10374 10376 10379 10381 10382 10383 10386 10389 10391 10390 10388 10389 10392 10392 10391 10391 10396 10399 10402 10404 10407 10409 10411 10414 10414 10415 10417 10420 10423 10426 10429 10431 10434 10437 10440 10443 10446 10448 10451 10454 10457 10459 10461 10463 10466 10469 10472 10474 10477 10479 10482 10483 10485 10486 10488 10489 10490 10491 10493 10493 10494 10496 10497
10349 10349 10349 10349 10349 10349 10350 10351 10351 10351 10351 10350 10349 10349 10350 10351 10353 10353 10355 10359 10363 10364 10363 10364 10367 10370 10372 10373 10376 10378 10378 10378 10378 10379 10381 10383 10382 10380 10382 10387 10389 10391 10394 10398 10401 10402 10403 10405 10407 10409 10411 10413 10416 10419 10421 10424 10427 10430 10433 10437 10440 10443 10446 10448 10450 10453 10455 10458 10461 10464 10466 10469 10473 10475 10477 10479 10480 10482 10483 10484 10486 10487 10488 10489 10491 10492
10340 10340 10340 10339 10339 10339 10340 10341 10341 10341 10342 10342 10341 10341 10341 10341 10342 10343 10345 10348 10351 10352 10352 10354 10357 10359 10362 10365 10367 10368 10366 10366 10367 10369 10372 10373 10371 10369 10374 10378 10379 10380 10384 10389 10392 10393 10393 10396 10399 10401 10403 10404 10407 10409 10413 10414 10417 10419 10423 10428 10432 10435 10438 10440 10442 10444 10447 10449 10453 10456 10458 10462 10465 10468 10470 10472 10474 10476 10477 10478 10480 10481 10483 10484 10486 10487
10331 10331 10331 10331 10331 10331 10331 10331 10331 10331 10332 10333 10333 10333 10333 10333 10333 10334 10335 10337 10339 10341 10343 10344 10346 10348 10351 10354 10356 10356 10356 10358 10359 10361 10363 10363 10361 10361 10366 10369 10371 10372 10374 10379 10382 10383 10384 10386 10389 10393 10394 10396 10398 10400 10403 10406 10408 10409 10413 10418 10422 10426 10429 10432 10434 10436 10439 10441 10444 10448 10451 10454 10457 10460 10463 10465 10467 10469 10471 10473 10474 10476 10478 10479 10480 10481
10319 10320 10320 10321 10321 10321 10321 10321 10321 10321 10322 10323 10323 10324 10324 10324 10325 10325 10326 10328 10329 10331 10333 10334 10336 10337 10339 10342 10344 10345 10346 10349 10351 10353 10354 10354 10354 10354 10357 10360 10363 10364 10366 10369 10372 10374 10376 10378 10381 10384 10386 10388 10389 10391 10394 10397 10399 10401 10404 10407 10411 10416 10419 10424 10426 10429 10431 10433 10436 10439 10443 10446 10449 10452 10455 10458 10460 10462 10464 10466 10468 10470 10472 10473 10475 10476
10308 10308 10309 10309 10310 10311 10311 10312 10312 10313 10313 10313 10313 10314 10315 10316 10316 10317 10318 10318 10320 10321 10323 10324 10325 10327 10329 10331 10333 10334 10336 10338 10341 10343 10344 10346 10346 10346 10348 10352 10354 10355 10358 10361 10363 10365 10368 10371 10374 10377 10379 10379 10381 10383 10386 10388 10391 10393 10395 10398 10401 10404 10409 10414 10418 10421 10423 10426 10429 10432 10434 10438 10441 10444 10447 10450 10453 10455 10458 10460 10462 10464 10466 10468 10469 10471
10299 10298 10298 10298 10299 10299 10300 10301 10302 10303 10303 10303 10303 10304 10305 10306 10307 10308 10309 10310 10311 10313 10314 10314 10316 10318 10319 10321 10323 10324 10325 10326 10328 10331 10333 10336 10336 10337 10340 10343 10344 10346 10349 10351 10353 10356 10360 10363 10366 10369 10371 10372 10373 10375 10378 10380 10383 10386 10388 10390 10392 10394 10398 10403 10408 10411 10414 10418 10421 10424 10426 10430 10433 10436 10439 10442 10444 10448 10450 10453 10456 10458 10460 10462 10464 10465
10290 10289 10288 10288 10288 10288 10289 10289 10291 10291 10293 10293 10294 10294 10295 10296 10297 10298 10299 10301 10302 10303 10304 10306 10307 10308 10310 10311 10313 10314 10314 10316 10318 10321 10323 10324 10326 10328 10331 10333 10334 10337 10340 10341 10343 10347 10351 10354 10358 10361 10364 10366 10366 10367 10369 10373 10376 10379 10381 10383 10384 10386 10388 10392 10396 10401 10405 10409 10412 10415 10418 10422 10426 10429 10431 10434 10437 10439 10443 10445 10448 10451 10454 10456 10458 10459
10280 10279 10279 10279 10279 10279 10278 10278 10279 10279 10281 10281 10283 10284 10285 10286 10288 10288 10289 10291 10293 10294 10295 10296 10298 10299 10300 10301 10303 10304 10305 10306 10308 10311 10313 10314 10317 10320 10322 10323 10324 10328 10331 10332 10333 10336 10341 10345 10349 10353 10356 10358 10359 10361 10362 10364 10368 10371 10373 10375 10377 10379 10381 10383 10386 10391 10395 10399 10403 10406 10409 10413 10417 10421 10424 10427 10429 10432 10434 10438 10441 10444 10447 10449 10451 10453
10268 10268 10268 10269 10269 10269 10269 10268 10268 10268 10269 10269 10271 10272 10274 10276 10277 10278 10279 10281 10283 10284 10285 10286 10288 10289 10290 10291 10293 10294 10296 10297 10299 10301 10302 10304 10308 10312 10313 10314 10316 10319 10322 10323 10324 10328 10332 10335 10338 10342 10346 10349 10352 10354 10356 10358 10361 10363 10364 10367 10370 10373 10374 10376 10378 10382 10386 10389 10393 10396 10400 10404 10408 10412 10416 10419 10422 10424 10427 10430 10433 10436 10440 10443 10445 10447
10254 10254 10255 10256 10258 10258 10259 10258 10258 10258 10258 10259 10259 10261 10262 10264 10266 10268 10269 10271 10272 10274 10275 10276 10278 10279 10280 10281 10283 10284 10286 10288 10289 10290 10292 10295 10299 10302 10304 10307 10309 10311 10313 10315 10318 10321 10323 10326 10328 10332 10336 10339 10343 10346 10348 10351 10353 10355 10357 10360 10363 10366 10368 10370 10372 10374 10377 10380 10384 10388 10391 10394 10398 10402 10406 10409 10413 10416 10419 10422 10425 10429 10432 10435 10438 10440
10241 10241 10242 10243 10244 10246 10247 10248 10248 10248 10248 10248 10249 10249 10250 10252 10253 10255 10257 10259 10261 10263 10264 10266 10268 10269 10270 10271 10273 10274 10276 10277 10278 10280 10283 10285 10288 10291 10296 10299 10301 10303 10305 10308 10311 10313 10315 10318 10320 10323 10327 10330 10333 10336 10339 10343 10345 10348 10351 10354 10357 10358 10360 10363 10366 10368 10370 10373 10376 10379 10382 10384 10388 10391 10395 10399 10403 10407 10410 10413 10417 10421 10424 10427 10429 10433
10229 10229 10229 10229 10231 10233 10234 10235 10236 10236 10238 10238 10239 10239 10239 10239 10241 10242 10244 10246 10249 10251 10253 10256 10258 10259 10260 10261 10262 10263 10265 10266 10268 10271 10273 10275 10278 10281 10285 10289 10292 10295 10298 10300 10303 10305 10308 10310 10313 10315 10318 10321 10324 10327 10330 10333 10336 10339 10343 10347 10349 10350 10353 10356 10359 10361 10364 10366 10369 10372 10374 10378 10380 10383 10385 10388 10391 10395 10399 10404 10408 10412 10416 10419 10421 10424
10217 10217 10216 10217 10218 10219 10220 10221 10223 10224 10226 10227 10228 10228 10228 10229 10229 10231 10232 10234 10236 10239 10241 10244 10246 10248 10249 10250 10251 10253 10254 10256 10258 10261 10263 10265 10268 10271 10275 10278 10282 10286 10290 10293 10294 10297 10301 10304 10306 10308 10310 10313 10316 10319 10322 10324 10328 10331 10334 10336 10339 10343 10348 10351 10353 10355 10358 10359 10362 10365 10368 10371 10373 10376 10378 10380 10383 10385 10389 10393 10398 10401 10406 10410 10413 10416
10206 10205 10204 10205 10206 10206 10208 10208 10210 10211 10213 10214 10216 10216 10217 10218 10219 10220 10221 10223 10224 10226 10229 10232 10234 10237 10238 10239 10240 10242 10244 10246 10248 10250 10253 10255 10258 10261 10265 10268 10272 10276 10281 10284 10287 10289 10293 10296 10299 10301 10303 10306 10309 10311 10314 10316 10320 10323 10326 10328 10331 10336 10341 10343 10345 10348 10351 10353 10355 10358 10361 10364 10366 10369 10371 10374 10376 10379 10381 10384 10386 10390 10394 10399 10404 10408
10194 10193 10193 10193 10193 10194 10195 10196 10197 10198 10199 10201 10203 10204 10206 10207 10209 10211 10211 10212 10213 10214 10217 10219 10223 10225 10227 10228 10229 10230 10233 10235 10238 10240 10243 10244 10248 10251 10254 10258 10261 10266 10270 10274 10278 10281 10284 10288 10292 10294 10296 10299 10302 10304 10306 10309 10313 10316 10318 10320 10323 10326 10328 10331 10336 10341 10344 10346 10348 10351 10354 10356 10359 10363 10366 10368 10371 10373 10376 10378 10379 10381 10384 10388 10392 10396
10183 10183 10182 10182 10182 10183 10183 10184 10184 10186 10188 10189 10191 10192 10193 10195 10198 10199 10201 10201 10202 10204 10206 10208 10211 10214 10215 10216 10216 10218 10221 10224 10227 10229 10231 10234 10236 10239 10244 10247 10251 10254 10259 10264 10268 10272 10276 10281 10284 10286 10289 10293 10296 10298 10299 10303 10305 10308 10310 10313 10316 10318 10319 10323 10328 10333 10336 10338 10341 10344 10346 10349 10353 10356 10359 10361 10364 10366 10369 10372 10374 10376 10378 10381 10383 10386
10172 10171 10171 10171 10171 10171 10172 10172 10173 10174 10176 10177 10178 10179 10181 10183 10186 10188 10189 10191 10192 10193 10195 10198 10201 10203 10204 10204 10204 10207 10210 10213 10216 10218 10220 10223 10225 10229 10232 10236 10240 10244 10249 10253 10257 10262 10267 10272 10276 10279 10283 10286 10289 10291 10293 10295 10298 10301 10303 10306 10308 10311 10313 10316 10320 10323 10326 10330 10333 10336 10339 10343 10347 10350 10352 10353 10356 10359 10362 10365 10368 10371 10373 10375 10378 10379
10161 10161 10160 10160 10160 10161 10161 10161 10162 10163 10164 10165 10166 10168 10169 10171 10174 10176 10178 10179 10181 10183 10185 10187 10190 10192 10193 10193 10193 10196 10199 10202 10203 10206 10209 10212 10215 10218 10221 10225 10229 10234 10238 10243 10248 10252 10257 10261 10266 10271 10276 10279 10280 10282 10285 10288 10291 10293 10295 10298 10301 10304 10306 10308 10311 10314 10318 10322 10325 10328 10331 10336 10339 10342 10343 10346 10349 10353 10356 10359 10362 10365 10368 10371 10373 10375
10150 10150 10149 10149 10149 10150 10150 10151 10151 10152 10153 10154 10155 10156 10158 10160 10162 10164 10166 10168 10169 10172 10174 10176 10179 10181 10183 10182 10183 10186 10189 10190 10191 10194 10197 10201 10204 10208 10211 10215 10219 10223 10228 10233 10237 10241 10246 10251 10256 10261 10266 10269 10272 10274 10278 10281 10283 10285 10286 10289 10293 10296 10298 10300 10303 10307 10311 10314 10317 10320 10324 10328 10331 10333 10335 10339 10343 10346 10349 10352 10356 10359 10363 10365 10368 10371
10140 10140 10139 10139 10139 10139 10139 10140 10141 10141 10142 10143 10144 10146 10147 10149 10151 10153 10154 10156 10158 10161 10163 10165 10168 10170 10171 10173 10174 10176 10178 10179 10181 10183 10186 10189 10193 10197 10201 10205 10209 10213 10217 10221 10225 10230 10234 10239 10244 10249 10254 10259 10263 10266 10269 10272 10274 10277 10279 10282 10285 10288 10290 10293 10296 10300 10303 10306 10309 10312 10316 10319 10322 10324 10329 10333 10336 10338 10341 10345 10349 10353 10356 10359 10363 10366
10131 10130 10129 10129 10129 10129 10129 10130 10131 10131 10132 10133 10134 10135 10136 10138 10139 10141 10143 10144 10147 10149 10151 10153 10156 10158 10161 10163 10164 10166 10168 10169 10171 10173 10174 10178 10181 10186 10191 10195 10198 10202 10205 10209 10213 10218 10223 10228 10233 10238 10242 10247 10252 10256 10259 10262 10265 10268 10271 10273 10276 10279 10282 10285 10288 10292 10295 10298 10301 10304 10308 10311 10314 10318 10323 10326 10328 10330 10334 10338 10342 10346 10349 10353 10357 10360
10121 10121 10120 10120 10119 10119 10120 10120 10121 10121 10122 10123 10124 10124 10126 10127 10129 10131 10132 10134 10136 10138 10139 10142 10144 10147 10149 10151 10153 10156 10158 10159 10161 10162 10164 10166 10171 10175 10179 10183 10187 10190 10194 10197 10201 10206 10211 10216 10221 10226 10231 10236 10240 10244 10248 10251 10254 10259 10262 10264 10267 10271 10275 10278 10280 10283 10287 10290 10293 10296 10300 10303 10306 10310 10314 10317 10320 10323 10327 10331 10334 10338 10342 10346 10351 10354